Starlink 35819

operational
NORAD ID: 66286 Int'l Des: 2025-247 Owner: SPXS Country: US Constellation: starlink
NOTLE

关于 Starlink 35819

正在加载描述...

实时位置

正在加载3D地球...

即将过境

高度历史

Altitude vs Time

uPlot chart will show altitude changes over time

两行轨道根数

1 66286C 25247W 25305.06784722 .00473600 00000+0 70886-3 0 3051
2 66286 53.1562 79.7528 0008874 258.4677 328.7264 16.03460916 15
Epoch: Nov 1, 2025 • Age: 46 hours

当前状态

高度 263.2 km
速度 7.75 km/s
星下点 20.01°N, 78.95°E
发射日期 Oct 31, 2025
运行时间 2 days
类型 internet

技术详情

分类 Payload
质量 575.00 kg
干质量 530.00 kg
总质量 575.00 kg
长度 0.30 m
直径 4.10 m
跨度 29.00 m
形状 Box + pan
制造商 SPXS
平台类型 Starlink V2MO
阶段状态 In Orbit
所有者/国家 SPXS/US

大型星座

Loading constellations...